Time,TemperatureF,DewpointF,PressureIn,WindDirection,WindDirectionDegrees,WindSpeedMPH,WindSpeedGustMPH,Humidity,HourlyPrecipIn,Conditions,Clouds,dailyrainin,SoftwareType,DateUTC
2013-04-27 00:06:00,53.1,51.0,30.34,NNW,331,0.0,0.0,93,0.00,,,0.00,weatherlink.com 1.10,2013-04-27 04:06:00,
2013-04-27 00:21:00,53.2,52.0,30.34,NNW,331,0.0,0.0,94,0.00,,,0.00,weatherlink.com 1.10,2013-04-27 04:21:00,
2013-04-27 00:36:00,52.6,51.0,30.34,NNW,331,0.0,0.0,94,0.00,,,0.00,weatherlink.com 1.10,2013-04-27 04:36:00,
2013-04-27 00:51:00,52.4,51.0,30.34,NNW,331,0.0,0.0,95,0.00,,,0.00,weatherlink.com 1.10,2013-04-27 04:51:00,
2013-04-27 01:06:00,52.5,51.0,30.34,NNW,331,0.0,1.0,95,0.00,,,0.00,weatherlink.com 1.10,2013-04-27 05:06:00,
2013-04-27 01:21:00,52.5,51.0,30.34,NNW,333,0.0,0.0,95,0.00,,,0.00,weatherlink.com 1.10,2013-04-27 05:21:00,
2013-04-27 01:36:00,52.8,52.0,30.34,NNW,333,0.0,1.0,95,0.00,,,0.00,weatherlink.com 1.10,2013-04-27 05:36:00,
2013-04-27 01:51:00,53.0,52.0,30.33,NNW,332,0.0,1.0,95,0.00,,,0.00,weatherlink.com 1.10,2013-04-27 05:51:00,
2013-04-27 02:07:00,53.2,52.0,30.33,ENE,64,0.0,1.0,95,0.00,,,0.00,weatherlink.com 1.10,2013-04-27 06:07:00,
2013-04-27 02:21:00,52.9,52.0,30.33,North,9,0.0,1.0,96,0.00,,,0.00,weatherlink.com 1.10,2013-04-27 06:21:00,
2013-04-27 02:36:00,53.3,52.0,30.34,North,9,0.0,1.0,96,0.00,,,0.00,weatherlink.com 1.10,2013-04-27 06:36:00,
2013-04-27 02:51:00,53.9,53.0,30.33,North,9,0.0,1.0,96,0.00,,,0.00,weatherlink.com 1.10,2013-04-27 06:51:00,
2013-04-27 03:06:00,54.0,53.0,30.33,NNE,33,0.0,1.0,96,0.00,,,0.00,weatherlink.com 1.10,2013-04-27 07:06:00,
2013-04-27 03:21:00,54.1,53.0,30.33,NNE,23,0.0,1.0,96,0.00,,,0.00,weatherlink.com 1.10,2013-04-27 07:21:00,
2013-04-27 03:36:00,54.3,53.0,30.32,East,99,0.0,1.0,96,0.00,,,0.00,weatherlink.com 1.10,2013-04-27 07:36:00,
2013-04-27 03:51:00,54.4,53.0,30.33,East,82,0.0,0.0,96,0.00,,,0.00,weatherlink.com 1.10,2013-04-27 07:51:00,
2013-04-27 04:06:00,54.5,53.0,30.33,NNW,344,0.0,1.0,96,0.00,,,0.00,weatherlink.com 1.10,2013-04-27 08:06:00,
2013-04-27 04:21:00,54.5,53.0,30.34,NW,322,1.0,1.0,96,0.00,,,0.00,weatherlink.com 1.10,2013-04-27 08:21:00,
2013-04-27 04:36:00,54.7,54.0,30.32,ENE,68,1.0,2.0,96,0.00,,,0.00,weatherlink.com 1.10,2013-04-27 08:36:00,
2013-04-27 04:51:00,54.6,54.0,30.32,NE,38,0.0,0.0,96,0.00,,,0.00,weatherlink.com 1.10,2013-04-27 08:51:00,
2013-04-27 05:06:00,54.9,54.0,30.33,NE,52,0.0,1.0,96,0.00,,,0.00,weatherlink.com 1.10,2013-04-27 09:06:00,
2013-04-27 05:21:00,55.0,54.0,30.33,ENE,73,0.0,2.0,95,0.00,,,0.00,weatherlink.com 1.10,2013-04-27 09:21:00,
2013-04-27 05:36:00,54.9,54.0,30.32,ENE,68,0.0,1.0,95,0.00,,,0.00,weatherlink.com 1.10,2013-04-27 09:36:00,
2013-04-27 05:51:00,54.9,54.0,30.32,ENE,68,0.0,1.0,95,0.00,,,0.00,weatherlink.com 1.10,2013-04-27 09:51:00,
2013-04-27 06:07:00,54.9,54.0,30.32,ENE,63,0.0,1.0,95,0.00,,,0.00,weatherlink.com 1.10,2013-04-27 10:07:00,
2013-04-27 06:22:00,55.0,54.0,30.31,ENE,63,0.0,1.0,95,0.00,,,0.00,weatherlink.com 1.10,2013-04-27 10:22:00,
2013-04-27 06:37:00,54.9,54.0,30.32,ENE,63,0.0,0.0,95,0.00,,,0.00,weatherlink.com 1.10,2013-04-27 10:37:00,
2013-04-27 06:52:00,54.9,54.0,30.32,ENE,63,0.0,0.0,95,0.00,,,0.00,weatherlink.com 1.10,2013-04-27 10:52:00,
2013-04-27 07:07:00,55.0,54.0,30.33,ENE,63,0.0,0.0,95,0.00,,,0.00,weatherlink.com 1.10,2013-04-27 11:07:00,
2013-04-27 07:22:00,55.3,54.0,30.34,ENE,63,0.0,0.0,95,0.00,,,0.00,weatherlink.com 1.10,2013-04-27 11:22:00,
2013-04-27 07:37:00,55.6,54.0,30.35,North,9,0.0,1.0,95,0.00,,,0.00,weatherlink.com 1.10,2013-04-27 11:37:00,
2013-04-27 07:52:00,56.0,55.0,30.35,North,350,0.0,1.0,95,0.00,,,0.00,weatherlink.com 1.10,2013-04-27 11:52:00,
2013-04-27 08:07:00,56.7,55.0,30.36,North,355,0.0,2.0,94,0.00,,,0.00,weatherlink.com 1.10,2013-04-27 12:07:00,
2013-04-27 08:22:00,57.2,55.0,30.36,NNE,22,0.0,2.0,93,0.00,,,0.00,weatherlink.com 1.10,2013-04-27 12:22:00,
2013-04-27 08:37:00,57.7,56.0,30.36,North,2,1.0,2.0,93,0.00,,,0.00,weatherlink.com 1.10,2013-04-27 12:37:00,
2013-04-27 08:52:00,58.4,56.0,30.36,East,80,1.0,2.0,92,0.00,,,0.00,weatherlink.com 1.10,2013-04-27 12:52:00,
2013-04-27 09:07:00,59.6,57.0,30.36,NE,48,0.0,2.0,91,0.00,,,0.00,weatherlink.com 1.10,2013-04-27 13:07:00,
2013-04-27 09:22:00,60.6,57.0,30.35,NE,52,2.0,3.0,89,0.00,,,0.00,weatherlink.com 1.10,2013-04-27 13:22:00,
2013-04-27 09:37:00,62.7,58.0,30.36,ENE,59,1.0,4.0,85,0.00,,,0.00,weatherlink.com 1.10,2013-04-27 13:37:00,
2013-04-27 09:52:00,63.4,58.0,30.36,NE,54,0.0,4.0,82,0.00,,,0.00,weatherlink.com 1.10,2013-04-27 13:52:00,
2013-04-27 10:07:00,64.9,59.0,30.35,East,89,0.0,4.0,80,0.00,,,0.00,weatherlink.com 1.10,2013-04-27 14:07:00,
2013-04-27 10:22:00,66.6,58.0,30.35,ESE,122,4.0,6.0,73,0.00,,,0.00,weatherlink.com 1.10,2013-04-27 14:22:00,
2013-04-27 10:37:00,67.8,56.0,30.35,East,100,3.0,6.0,67,0.00,,,0.00,weatherlink.com 1.10,2013-04-27 14:37:00,
2013-04-27 10:52:00,69.2,55.0,30.34,ENE,72,1.0,7.0,61,0.00,,,0.00,weatherlink.com 1.10,2013-04-27 14:52:00,
2013-04-27 11:07:00,70.6,52.0,30.34,East,82,2.0,7.0,53,0.00,,,0.00,weatherlink.com 1.10,2013-04-27 15:07:00,
2013-04-27 11:22:00,70.9,50.0,30.33,SSE,168,7.0,9.0,48,0.00,,,0.00,weatherlink.com 1.10,2013-04-27 15:22:00,
2013-04-27 11:37:00,71.4,49.0,30.34,East,95,3.0,8.0,46,0.00,,,0.00,weatherlink.com 1.10,2013-04-27 15:37:00,
2013-04-27 11:52:00,70.9,50.0,30.34,East,83,7.0,10.0,47,0.00,,,0.00,weatherlink.com 1.10,2013-04-27 15:52:00,
2013-04-27 12:07:00,71.5,50.0,30.34,ESE,108,7.0,7.0,47,0.00,,,0.00,weatherlink.com 1.10,2013-04-27 16:07:00,
2013-04-27 12:22:00,72.2,51.0,30.33,SE,139,1.0,9.0,47,0.00,,,0.00,weatherlink.com 1.10,2013-04-27 16:22:00,
2013-04-27 12:37:00,72.2,50.0,30.32,SE,146,1.0,12.0,46,0.00,,,0.00,weatherlink.com 1.10,2013-04-27 16:37:00,
2013-04-27 12:52:00,72.0,49.0,30.32,ESE,113,5.0,8.0,44,0.00,,,0.00,weatherlink.com 1.10,2013-04-27 16:52:00,
2013-04-27 13:08:00,71.1,49.0,30.31,NNW,340,1.0,9.0,46,0.00,,,0.00,weatherlink.com 1.10,2013-04-27 17:08:00,
2013-04-27 13:23:00,71.6,47.0,30.31,ESE,113,1.0,9.0,42,0.00,,,0.00,weatherlink.com 1.10,2013-04-27 17:23:00,
2013-04-27 13:38:00,72.4,49.0,30.31,East,101,5.0,9.0,43,0.00,,,0.00,weatherlink.com 1.10,2013-04-27 17:38:00,
2013-04-27 13:53:00,72.6,47.0,30.31,ENE,76,6.0,8.0,41,0.00,,,0.00,weatherlink.com 1.10,2013-04-27 17:53:00,
2013-04-27 14:08:00,73.3,48.0,30.31,ENE,66,2.0,9.0,41,0.00,,,0.00,weatherlink.com 1.10,2013-04-27 18:08:00,
2013-04-27 14:23:00,72.7,47.0,30.31,ESE,111,6.0,11.0,40,0.00,,,0.00,weatherlink.com 1.10,2013-04-27 18:23:00,
2013-04-27 14:38:00,73.1,45.0,30.31,South,187,2.0,8.0,37,0.00,,,0.00,weatherlink.com 1.10,2013-04-27 18:38:00,
2013-04-27 14:53:00,72.8,44.0,30.31,ESE,118,3.0,10.0,35,0.00,,,0.00,weatherlink.com 1.10,2013-04-27 18:53:00,
2013-04-27 15:08:00,72.8,45.0,30.31,SSE,156,6.0,10.0,37,0.00,,,0.00,weatherlink.com 1.10,2013-04-27 19:08:00,
2013-04-27 15:23:00,72.8,45.0,30.30,SE,139,5.0,10.0,37,0.00,,,0.00,weatherlink.com 1.10,2013-04-27 19:23:00,
2013-04-27 15:38:00,72.5,46.0,30.30,SE,141,0.0,11.0,39,0.00,,,0.00,weatherlink.com 1.10,2013-04-27 19:38:00,
2013-04-27 15:53:00,72.0,45.0,30.30,SE,137,4.0,13.0,38,0.00,,,0.00,weatherlink.com 1.10,2013-04-27 19:53:00,
2013-04-27 16:08:00,71.1,46.0,30.29,North,350,4.0,10.0,41,0.00,,,0.00,weatherlink.com 1.10,2013-04-27 20:08:00,
2013-04-27 16:23:00,69.9,49.0,30.29,SE,142,8.0,10.0,47,0.00,,,0.00,weatherlink.com 1.10,2013-04-27 20:23:00,
2013-04-27 16:38:00,68.6,51.0,30.28,ESE,121,12.0,12.0,53,0.00,,,0.00,weatherlink.com 1.10,2013-04-27 20:38:00,
2013-04-27 16:53:00,68.3,50.0,30.28,ESE,113,7.0,11.0,53,0.00,,,0.00,weatherlink.com 1.10,2013-04-27 20:53:00,
2013-04-27 17:08:00,67.8,49.0,30.28,East,93,5.0,8.0,51,0.00,,,0.00,weatherlink.com 1.10,2013-04-27 21:08:00,
2013-04-27 17:23:00,67.5,46.0,30.28,North,5,2.0,8.0,47,0.00,,,0.00,weatherlink.com 1.10,2013-04-27 21:23:00,
2013-04-27 17:38:00,67.2,44.0,30.29,East,90,9.0,10.0,44,0.00,,,0.00,weatherlink.com 1.10,2013-04-27 21:38:00,
2013-04-27 17:53:00,66.8,45.0,30.29,SE,142,3.0,8.0,45,0.00,,,0.00,weatherlink.com 1.10,2013-04-27 21:53:00,
2013-04-27 18:08:00,66.3,45.0,30.30,SE,135,2.0,6.0,46,0.00,,,0.00,weatherlink.com 1.10,2013-04-27 22:08:00,
2013-04-27 18:23:00,65.9,44.0,30.30,East,100,4.0,6.0,46,0.00,,,0.00,weatherlink.com 1.10,2013-04-27 22:23:00,
2013-04-27 18:38:00,65.6,42.0,30.29,NE,54,4.0,8.0,43,0.00,,,0.00,weatherlink.com 1.10,2013-04-27 22:38:00,
2013-04-27 18:53:00,65.3,44.0,30.30,SE,144,2.0,7.0,46,0.00,,,0.00,weatherlink.com 1.10,2013-04-27 22:53:00,
2013-04-27 19:08:00,65.0,47.0,30.29,SSE,165,1.0,3.0,53,0.00,,,0.00,weatherlink.com 1.10,2013-04-27 23:08:00,
2013-04-27 19:23:00,64.7,47.0,30.29,East,94,3.0,5.0,54,0.00,,,0.00,weatherlink.com 1.10,2013-04-27 23:23:00,
2013-04-27 19:38:00,64.4,48.0,30.28,SE,137,4.0,4.0,56,0.00,,,0.00,weatherlink.com 1.10,2013-04-27 23:38:00,
2013-04-27 19:53:00,64.1,49.0,30.28,ESE,118,1.0,6.0,58,0.00,,,0.00,weatherlink.com 1.10,2013-04-27 23:53:00,
2013-04-27 20:08:00,63.7,50.0,30.28,East,90,6.0,8.0,62,0.00,,,0.00,weatherlink.com 1.10,2013-04-28 00:08:00,
2013-04-27 20:23:00,63.4,52.0,30.28,ESE,105,2.0,5.0,66,0.00,,,0.00,weatherlink.com 1.10,2013-04-28 00:23:00,
2013-04-27 20:38:00,62.8,52.0,30.29,NE,45,0.0,5.0,69,0.00,,,0.00,weatherlink.com 1.10,2013-04-28 00:38:00,
2013-04-27 20:53:00,62.5,53.0,30.28,East,95,0.0,3.0,72,0.00,,,0.00,weatherlink.com 1.10,2013-04-28 00:53:00,
2013-04-27 21:08:00,62.0,54.0,30.27,ESE,115,0.0,5.0,74,0.00,,,0.00,weatherlink.com 1.10,2013-04-28 01:08:00,
2013-04-27 21:23:00,61.9,54.0,30.27,East,90,4.0,6.0,75,0.00,,,0.00,weatherlink.com 1.10,2013-04-28 01:23:00,
2013-04-27 21:38:00,61.6,54.0,30.28,East,99,2.0,3.0,77,0.00,,,0.00,weatherlink.com 1.10,2013-04-28 01:38:00,
2013-04-27 21:53:00,61.0,54.0,30.28,SSE,162,0.0,1.0,78,0.00,,,0.00,weatherlink.com 1.10,2013-04-28 01:53:00,
2013-04-27 22:08:00,60.5,54.0,30.28,SSE,158,0.0,1.0,80,0.00,,,0.00,weatherlink.com 1.10,2013-04-28 02:08:00,
2013-04-27 22:23:00,60.1,55.0,30.28,SSE,157,0.0,1.0,82,0.00,,,0.00,weatherlink.com 1.10,2013-04-28 02:23:00,
2013-04-27 22:38:00,60.6,55.0,30.28,SSE,160,0.0,1.0,82,0.00,,,0.00,weatherlink.com 1.10,2013-04-28 02:38:00,
2013-04-27 22:53:00,61.3,55.0,30.28,SE,130,0.0,5.0,81,0.00,,,0.00,weatherlink.com 1.10,2013-04-28 02:53:00,
2013-04-27 23:08:00,61.6,56.0,30.27,SE,130,0.0,2.0,81,0.00,,,0.00,weatherlink.com 1.10,2013-04-28 03:08:00,
2013-04-27 23:23:00,61.8,56.0,30.26,SE,128,0.0,1.0,81,0.00,,,0.00,weatherlink.com 1.10,2013-04-28 03:23:00,
2013-04-27 23:38:00,61.8,56.0,30.25,ESE,106,0.0,2.0,82,0.00,,,0.00,weatherlink.com 1.10,2013-04-28 03:38:00,
2013-04-27 23:53:00,61.5,56.0,30.25,SE,125,0.0,2.0,82,0.00,,,0.00,weatherlink.com 1.10,2013-04-28 03:53:00,